TimeSAST,TemperatureF,Dew PointF,Humidity,Sea Level PressureIn,VisibilityMPH,Wind Direction,Wind SpeedMPH,Gust SpeedMPH,PrecipitationIn,Events,Conditions,WindDirDegrees,DateUTC
12:00 AM,53.6,50.0,88,30.09,5.0,West,3.5,-,N/A,,Scattered Clouds,280,2012-10-27 22:00:00
1:00 AM,51.8,50.0,94,30.06,5.0,NW,4.6,-,N/A,,Unknown,310,2012-10-27 23:00:00
2:00 AM,51,49,92,30.08,4,WNW,3.5,,,,,290,2012-10-28 00:00:00
2:00 AM,51.8,50.0,94,30.06,5.0,WNW,4.6,-,N/A,,Unknown,300,2012-10-28 00:00:00
3:00 AM,51.8,50.0,94,30.06,5.6,WNW,5.8,-,N/A,,Unknown,300,2012-10-28 01:00:00
4:00 AM,51.8,50.0,94,30.04,-9999.0,Variable,2.3,-,N/A,,Clear,0,2012-10-28 02:00:00
5:00 AM,50,48,89,30.08,12,NW,3.5,,,,Scattered Clouds,310,2012-10-28 03:00:00
5:00 AM,50.0,48.2,94,30.06,6.2,NW,3.5,-,N/A,,Partly Cloudy,310,2012-10-28 03:00:00
6:00 AM,51.8,50.0,94,30.06,6.2,WNW,4.6,-,N/A,,Mostly Cloudy,300,2012-10-28 04:00:00
7:00 AM,55.4,51.8,88,30.06,3.7,WNW,3.5,-,N/A,Fog,Patches of Fog,300,2012-10-28 05:00:00
8:00 AM,57,55,90,30.10,4,West,3.5,,,Fog,Light Fog,260,2012-10-28 06:00:00
8:00 AM,57.2,55.4,94,30.09,3.7,West,3.5,-,N/A,Fog,Patches of Fog,260,2012-10-28 06:00:00
9:00 AM,60.8,55.4,82,30.06,6.2,WNW,3.5,-,N/A,,Partly Cloudy,300,2012-10-28 07:00:00
10:00 AM,66.2,55.4,68,30.06,6.2,Variable,2.3,-,N/A,,Partly Cloudy,0,2012-10-28 08:00:00
11:00 AM,68,57,60,30.08,12,South,4.6,,,,Clear,190,2012-10-28 09:00:00
11:00 AM,68.0,57.2,68,30.06,-9999.0,South,4.6,-,N/A,,Clear,190,2012-10-28 09:00:00
12:00 PM,66.2,59.0,78,30.06,6.2,South,10.4,-,N/A,,Partly Cloudy,190,2012-10-28 10:00:00
1:00 PM,68.0,57.2,68,30.06,-9999.0,SSE,8.1,-,N/A,,Clear,160,2012-10-28 11:00:00
2:00 PM,67,56,60,30.06,12,SSE,6.9,,,,Scattered Clouds,150,2012-10-28 12:00:00
2:00 PM,68.0,55.4,64,30.06,6.2,SSE,6.9,-,N/A,,Partly Cloudy,150,2012-10-28 12:00:00
3:00 PM,68.0,55.4,64,30.04,-9999.0,South,5.8,-,N/A,,Clear,170,2012-10-28 13:00:00
4:00 PM,68.0,53.6,60,30.04,-9999.0,SSE,4.6,-,N/A,,Clear,160,2012-10-28 14:00:00
5:00 PM,66,52,51,30.05,12,SSE,8.1,,,,,160,2012-10-28 15:00:00
5:00 PM,66.2,51.8,60,30.04,-9999.0,SSE,8.1,-,N/A,,Clear,160,2012-10-28 15:00:00
6:00 PM,62.6,53.6,72,30.04,-9999.0,SSE,4.6,-,N/A,,Clear,150,2012-10-28 16:00:00
7:00 PM,60.8,53.6,77,30.06,-9999.0,SSE,2.3,-,N/A,,Clear,150,2012-10-28 17:00:00
8:00 PM,58,55,85,30.08,12,SW,4.6,,,,,230,2012-10-28 18:00:00
8:00 PM,57.2,55.4,94,30.06,-9999.0,SW,4.6,-,N/A,,Clear,230,2012-10-28 18:00:00
9:00 PM,55.4,53.6,94,30.09,4.3,WSW,3.5,-,N/A,,Unknown,250,2012-10-28 19:00:00
10:00 PM,55.4,53.6,94,30.09,5.0,NW,5.8,-,N/A,,Mostly Cloudy,320,2012-10-28 20:00:00
11:00 PM,57.2,55.4,94,30.09,3.1,WNW,6.9,-,N/A,,Mist,290,2012-10-28 21:00:00